This is the latest recevied weather packets stored in our database for station/object KG5TTF. If no packets are shown the sender has not sent any weather packets the latest 10 day(s).
| Time | Temp. | Humidity | Pressure | Rain* | Wind** | Luminosity | Snow |
|---|---|---|---|---|---|---|---|
| 1778023968 | 0° C | 99% | 1015.7 hPa | 0 mm | - | 22 W/m² | - |
| 1778023665 | 0° C | 99% | 1015.7 hPa | 0 mm | - | 25 W/m² | - |
| 1778023362 | 0° C | 99% | 1015.4 hPa | 0 mm | - | 38 W/m² | - |
| 1778023058 | 0° C | 99% | 1015.4 hPa | 0 mm | - | 30 W/m² | - |
| 1778022758 | 0° C | 99% | 1015.1 hPa | 0 mm | - | 38 W/m² | - |
| 1778022456 | 0° C | 99% | 1015.1 hPa | 0 mm | - | 41 W/m² | - |
| 1778022152 | 0° C | 99% | 1015.2 hPa | 0 mm | - | 41 W/m² | - |
| 1778021848 | 0.56° C | 99% | 1014.8 hPa | 0 mm | - | 35 W/m² | - |
| 1778021546 | 0.56° C | 99% | 1014.9 hPa | 0 mm | - | 28 W/m² | - |
| 1778021241 | 0.56° C | 99% | 1014.7 hPa | 1.78 mm | - | 31 W/m² | - |
| 1778020939 | 0.56° C | 99% | 1014.8 hPa | 1.78 mm | - | 49 W/m² | - |
| 1778020636 | 0.56° C | 99% | 1014.8 hPa | 0 mm | - | 58 W/m² | - |
| 1778020332 | 0.56° C | 99% | 1014.6 hPa | 1.27 mm | - | 47 W/m² | - |
| 1778020028 | 0.56° C | 99% | 1014.4 hPa | 1.27 mm | - | 48 W/m² | - |
| 1778019724 | 0.56° C | 99% | 1014.6 hPa | 0 mm | - | 79 W/m² | - |
| 1778019422 | 0.56° C | 99% | 1014.7 hPa | 0 mm | - | 73 W/m² | - |
| 1778019118 | 0.56° C | 99% | 1014.6 hPa | 0 mm | - | 75 W/m² | - |
| 1778018815 | 0.56° C | 99% | 1014.6 hPa | 1.78 mm | - | 66 W/m² | - |
| 1778018513 | 0.56° C | 99% | 1014.6 hPa | 1.78 mm | - | 92 W/m² | - |
| 1778018210 | 0.56° C | 99% | 1014.4 hPa | 1.78 mm | - | 95 W/m² | - |
| 1778017909 | 0.56° C | 99% | 1014.8 hPa | 1.78 mm | - | 94 W/m² | - |
| 1778017606 | 0.56° C | 99% | 1014.6 hPa | 0 mm | - | 102 W/m² | - |
| 1778017303 | 0.56° C | 99% | 1014.7 hPa | 0 mm | - | 105 W/m² | - |
| 1778017001 | 0.56° C | 99% | 1014.8 hPa | 1.27 mm | - | 100 W/m² | - |
| 1778016697 | 0.56° C | 99% | 1014.8 hPa | 1.27 mm | - | 102 W/m² | - |
* Rain latest hour (hover to see other rain measurements)
** Current wind speed in m/s (hover to see current wind gust speed)